Location: Poughquag
(41.6090°N, 73.6820°W)
Time: 03:03:10
(UTC-04:00)

Transit 2A - Pass Details

Date: 02 June 2020
Orbit: 592 x 967 km, 66.7° (Epoch: 06 July)

Event Time Altitude Azimuth Distance (km) Brightness Sun altitude
Rises 20:33:49 0° 338° (NNW) 3,516 10.5 -2.4°
Reaches altitude 10° 20:37:05 10° 356° (N) 2,626 9.4 -2.9°
Maximum altitude 20:41:24 19° 41° (NE) 2,079 8.2 -3.6°
Drops below altitude 10° 20:45:49 10° 85° (E) 2,701 8.4 -4.3°
Enters shadow 20:48:36 - 100° (E) 3,459 8.8 -4.7°
Sets 20:49:13 0° 102° (ESE) 3,649 - -4.8°
